FORMOSAT-5

Last updated on Tue Jul 01 2025 00:02:30 GMT+0000 (Coordinated Universal Time)

1 42920U 17049A 25181.54125671 .00000103 00000+0 37200-4 0 9995 2 42920 98.2591 259.0082 0012303 80.8264 279.4322 14.50886777415682
UTC large
Height (km)
Speed (km/s)
/
Latitude / Longitude
Inclination (degrees)
Orbital Period (minutes)
Azimuth
Elevation
Range (km)
Doppler Factor

Next 0 passes for location: London (51.5072 / 0.1276)

Sorry there are no passes over London.